N96M KBIL-KBIL

Flight info

Callsign N96M
Flight time 0h 10m
Altitude 8000
Route KBIL
Aircraft B738/M-VGDW/C

Departure

Time 2026-05-08 23:37
Airport Billings Logan International Airport (KBIL)

Arrival

Time 2026-05-08 23:47
Airport Billings Logan International Airport (KBIL)
Time Latitude Longitude Altitude Speed Heading
2026-05-08 23:19 45.80369 -108.53212 3512 ft 0 kts 222°
2026-05-08 23:31 45.80368 -108.53214 3512 ft 0 kts 223°
2026-05-08 23:31 45.80366 -108.53220 3512 ft 2 kts 264°
2026-05-08 23:32 45.80382 -108.53209 3512 ft 9 kts 46°
2026-05-08 23:32 45.80453 -108.53104 3508 ft 16 kts 49°
2026-05-08 23:32 45.80444 -108.52937 3501 ft 20 kts 112°
2026-05-08 23:32 45.80385 -108.52728 3492 ft 25 kts 111°
2026-05-08 23:33 45.80313 -108.52473 3480 ft 29 kts 112°
2026-05-08 23:33 45.80233 -108.52181 3467 ft 34 kts 114°
2026-05-08 23:33 45.80141 -108.51877 3459 ft 18 kts 111°
2026-05-08 23:33 45.80118 -108.51749 3457 ft 0 kts 70°
2026-05-08 23:36 45.80147 -108.51708 3457 ft 10 kts 29°
2026-05-08 23:36 45.80220 -108.51720 3457 ft 14 kts 304°
2026-05-08 23:36 45.80258 -108.51850 3458 ft 16 kts 291°
2026-05-08 23:36 45.80370 -108.52257 3471 ft 72 kts 291°
2026-05-08 23:37 45.80626 -108.53172 3506 ft 121 kts 291°
2026-05-08 23:37 45.80978 -108.54473 3638 ft 150 kts 287°
2026-05-08 23:37 45.81327 -108.55861 4206 ft 154 kts 289°
2026-05-08 23:37 45.81691 -108.57323 4752 ft 168 kts 291°
2026-05-08 23:38 45.81836 -108.57816 4894 ft 174 kts 291°
2026-05-08 23:39 45.81877 -108.57958 4939 ft 176 kts 290°
2026-05-08 23:39 45.82603 -108.59356 5526 ft 187 kts 323°
2026-05-08 23:39 45.83848 -108.59884 6247 ft 199 kts
2026-05-08 23:40 45.85122 -108.59023 6761 ft 219 kts 42°
2026-05-08 23:40 45.86049 -108.57238 7302 ft 232 kts 58°
2026-05-08 23:40 45.86620 -108.55001 7679 ft 250 kts 73°
2026-05-08 23:40 45.86961 -108.52532 7905 ft 255 kts 77°
2026-05-08 23:41 45.87291 -108.50011 8001 ft 258 kts 75°
2026-05-08 23:41 45.87662 -108.47495 8008 ft 255 kts 74°
2026-05-08 23:41 45.88060 -108.45011 8009 ft 256 kts 73°
2026-05-08 23:41 45.88326 -108.42503 7999 ft 259 kts 87°
2026-05-08 23:42 45.88006 -108.39955 8004 ft 262 kts 109°
2026-05-08 23:42 45.87273 -108.37546 7949 ft 264 kts 115°
2026-05-08 23:42 45.86436 -108.35245 7684 ft 261 kts 123°
2026-05-08 23:42 45.85276 -108.33295 7413 ft 253 kts 140°
2026-05-08 23:43 45.83797 -108.32004 7121 ft 244 kts 164°
2026-05-08 23:43 45.82178 -108.31654 6839 ft 234 kts 185°
2026-05-08 23:43 45.80583 -108.31940 6553 ft 226 kts 200°
2026-05-08 23:43 45.79197 -108.32858 6266 ft 216 kts 221°
2026-05-08 23:44 45.78156 -108.34382 6020 ft 220 kts 238°
2026-05-08 23:44 45.77360 -108.36283 5887 ft 222 kts 249°
2026-05-08 23:44 45.76978 -108.38334 5757 ft 201 kts 268°
2026-05-08 23:44 45.77103 -108.40218 5450 ft 184 kts 285°
2026-05-08 23:45 45.77473 -108.41825 5193 ft 166 kts 291°
2026-05-08 23:45 45.77951 -108.43359 4739 ft 168 kts 294°
2026-05-08 23:45 45.78386 -108.44794 4488 ft 150 kts 291°
2026-05-08 23:45 45.78752 -108.46121 4173 ft 139 kts 288°
2026-05-08 23:46 45.79065 -108.47417 3817 ft 139 kts 287°
2026-05-08 23:46 45.79380 -108.48646 3683 ft 133 kts 290°
2026-05-08 23:46 45.79727 -108.49863 3580 ft 129 kts 288°
2026-05-08 23:46 45.80051 -108.51063 3529 ft 124 kts 288°
2026-05-08 23:47 45.80353 -108.52189 3467 ft 116 kts 289°
2026-05-08 23:47 45.80600 -108.53067 3503 ft 75 kts 289°
2026-05-08 23:47 45.80767 -108.53683 3521 ft 51 kts 289°
2026-05-08 23:47 45.80836 -108.53983 3531 ft 16 kts 250°
2026-05-08 23:48 45.80768 -108.54047 3538 ft 8 kts 204°